When you browse on this site, cookies collect data to enhance your experience and personalize the content and advertising you see.
Visit our Privacy Policy to learn more. By continuing to use the site, you agree to this use of cookies and data.
  • In Czech Republic
  • List of Countries
  • For 7 days
  • Water Temperature
  • Satellite Maps
  • Weather Map
  • Weather Widgets
  • user-avatar
    Login

    Hourly Weather Wasco

    Today, 24 July, Wednesday

    Time Temperature Precipitation Wind Pressure Humidity
    00:00 +29°C° 0 mm 2 mps 752 mmHg 26%
    01:00 +27°C° 0 mm 1 mps 752 mmHg 28%
    02:00 +27°C° 0 mm 1 mps 752 mmHg 28%
    03:00 +26°C° 0 mm 1 mps 752 mmHg 28%
    04:00 +25°C° 0 mm 1 mps 752 mmHg 28%
    05:00 +26°C° 0 mm 1 mps 752 mmHg 24%
    06:00 +28°C° 0 mm 1 mps 752 mmHg 21%
    07:00 +29°C° 0 mm 1 mps 753 mmHg 17%
    08:00 +32°C° 0 mm 2 mps 752 mmHg 15%
    09:00 +35°C° 0 mm 2 mps 752 mmHg 13%
    10:00 +38°C° 0 mm 2 mps 752 mmHg 10%
    11:00 +40°C° 0 mm 2 mps 752 mmHg 11%
    12:00 +42°C° 0 mm 2 mps 751 mmHg 11%
    13:00 +45°C° 0 mm 2 mps 751 mmHg 11%
    14:00 +45°C° 0 mm 2 mps 751 mmHg 11%
    15:00 +46°C° 0 mm 2 mps 750 mmHg 11%
    16:00 +47°C° 0 mm 2 mps 750 mmHg 11%
    17:00 +44°C° 0 mm 3 mps 750 mmHg 14%
    18:00 +42°C° 0 mm 4 mps 750 mmHg 16%
    19:00 +40°C° 0 mm 5 mps 750 mmHg 18%
    20:00 +37°C° 0 mm 5 mps 750 mmHg 21%
    21:00 +35°C° 0 mm 4 mps 750 mmHg 24%
    22:00 +32°C° 0 mm 4 mps 751 mmHg 26%
    23:00 +30°C° 0 mm 3 mps 751 mmHg 28%

    Tomorrow, 25 July, Thursday

    Time Temperature Precipitation Wind Pressure Humidity
    00:00 +28°C° 0 mm 2 mps 751 mmHg 31%
    01:00 +27°C° 0 mm 1 mps 751 mmHg 33%
    02:00 +26°C° 0 mm 1 mps 750 mmHg 33%
    03:00 +26°C° 0 mm 1 mps 750 mmHg 33%
    04:00 +25°C° 0 mm 1 mps 750 mmHg 33%
    05:00 +27°C° 0 mm 1 mps 751 mmHg 28%
    06:00 +29°C° 0 mm 1 mps 751 mmHg 23%
    07:00 +31°C° 0 mm 1 mps 751 mmHg 18%
    08:00 +34°C° 0 mm 1 mps 751 mmHg 16%
    09:00 +36°C° 0 mm 1 mps 751 mmHg 14%
    10:00 +40°C° 0 mm 1 mps 751 mmHg 12%
    11:00 +42°C° 0 mm 2 mps 751 mmHg 11%
    12:00 +43°C° 0 mm 2 mps 750 mmHg 11%
    13:00 +46°C° 0 mm 2 mps 750 mmHg 10%
    14:00 +46°C° 0 mm 3 mps 750 mmHg 10%
    15:00 +47°C° 0 mm 3 mps 749 mmHg 10%
    16:00 +49°C° 0 mm 4 mps 749 mmHg 10%
    17:00 +46°C° 0 mm 5 mps 749 mmHg 12%
    18:00 +42°C° 0 mm 5 mps 749 mmHg 14%
    19:00 +40°C° 0 mm 6 mps 749 mmHg 17%
    20:00 +36°C° 0 mm 5 mps 750 mmHg 19%
    21:00 +34°C° 0 mm 4 mps 750 mmHg 21%
    22:00 +30°C° 0 mm 3 mps 751 mmHg 23%
    23:00 +29°C° 0 mm 2 mps 751 mmHg 25%

    Day after tomorrow, 26 July, Friday

    Time Temperature Precipitation Wind Pressure Humidity
    00:00 +28°C° 0 mm 2 mps 751 mmHg 26%
    01:00 +27°C° 0 mm 1 mps 751 mmHg 28%
    02:00 +26°C° 0 mm 1 mps 751 mmHg 28%
    03:00 +25°C° 0 mm 1 mps 751 mmHg 29%
    04:00 +25°C° 0 mm 1 mps 751 mmHg 30%
    05:00 +27°C° 0 mm 1 mps 751 mmHg 26%
    06:00 +29°C° 0 mm 1 mps 751 mmHg 23%
    07:00 +31°C° 0 mm 1 mps 752 mmHg 19%
    08:00 +33°C° 0 mm 1 mps 752 mmHg 17%
    09:00 +36°C° 0 mm 1 mps 752 mmHg 14%
    10:00 +40°C° 0 mm 1 mps 752 mmHg 11%
    11:00 +42°C° 0 mm 2 mps 752 mmHg 11%
    12:00 +43°C° 0 mm 2 mps 751 mmHg 10%
    13:00 +46°C° 0 mm 3 mps 751 mmHg 9%
    14:00 +46°C° 0 mm 3 mps 750 mmHg 9%
    15:00 +48°C° 0 mm 4 mps 750 mmHg 9%
    16:00 +48°C° 0 mm 4 mps 750 mmHg 9%
    17:00 +46°C° 0 mm 5 mps 750 mmHg 11%
    18:00 +43°C° 0 mm 5 mps 750 mmHg 13%
    19:00 +40°C° 0 mm 6 mps 750 mmHg 15%
    20:00 +37°C° 0 mm 5 mps 751 mmHg 17%
    21:00 +34°C° 0 mm 4 mps 751 mmHg 20%
    22:00 +31°C° 0 mm 3 mps 751 mmHg 23%
    23:00 +29°C° 0 mm 2 mps 751 mmHg 25%

    27 July, Saturday

    Time Temperature Precipitation Wind Pressure Humidity
    00:00 +28°C° 0 mm 1 mps 751 mmHg 28%
    01:00 +26°C° 0 mm 1 mps 751 mmHg 30%
    02:00 +26°C° 0 mm 1 mps 751 mmHg 31%
    03:00 +25°C° 0 mm 1 mps 751 mmHg 31%
    04:00 +25°C° 0 mm 1 mps 751 mmHg 32%
    05:00 +27°C° 0 mm 1 mps 751 mmHg 28%
    06:00 +30°C° 0 mm 1 mps 751 mmHg 24%
    07:00 +32°C° 0 mm 1 mps 752 mmHg 20%
    08:00 +34°C° 0 mm 1 mps 752 mmHg 17%
    09:00 +37°C° 0 mm 1 mps 751 mmHg 15%
    10:00 +40°C° 0 mm 2 mps 751 mmHg 12%
    11:00 +42°C° 0 mm 2 mps 751 mmHg 12%
    12:00 +45°C° 0 mm 3 mps 750 mmHg 11%
    13:00 +47°C° 0 mm 3 mps 750 mmHg 10%
    14:00 +47°C° 0 mm 3 mps 750 mmHg 10%
    15:00 +48°C° 0 mm 3 mps 749 mmHg 10%
    16:00 +48°C° 0 mm 3 mps 749 mmHg 10%
    17:00 +46°C° 0 mm 3 mps 749 mmHg 11%
    18:00 +43°C° 0 mm 3 mps 749 mmHg 13%
    19:00 +41°C° 0 mm 4 mps 749 mmHg 15%
    20:00 +38°C° 0 mm 3 mps 749 mmHg 17%
    21:00 +35°C° 0 mm 3 mps 750 mmHg 19%
    22:00 +33°C° 0 mm 3 mps 750 mmHg 22%
    23:00 +31°C° 0 mm 2 mps 750 mmHg 24%

    28 July, Sunday

    Time Temperature Precipitation Wind Pressure Humidity
    00:00 +29°C° 0 mm 1 mps 750 mmHg 26%
    01:00 +28°C° 0 mm 1 mps 750 mmHg 27%
    02:00 +27°C° 0 mm 1 mps 750 mmHg 28%
    03:00 +26°C° 0 mm 1 mps 750 mmHg 29%
    04:00 +26°C° 0 mm 1 mps 750 mmHg 30%
    05:00 +28°C° 0 mm 1 mps 750 mmHg 26%
    06:00 +31°C° 0 mm 1 mps 750 mmHg 23%
    07:00 +33°C° 0 mm 1 mps 751 mmHg 19%
    08:00 +36°C° 0 mm 1 mps 751 mmHg 17%
    09:00 +39°C° 0 mm 1 mps 750 mmHg 14%
    10:00 +42°C° 0 mm 2 mps 750 mmHg 11%
    11:00 +45°C° 0 mm 2 mps 750 mmHg 10%
    12:00 +47°C° 0 mm 2 mps 749 mmHg 9%
    13:00 +50°C° 0 mm 3 mps 749 mmHg 8%
    14:00 +50°C° 0 mm 3 mps 749 mmHg 8%
    15:00 +51°C° 0 mm 3 mps 749 mmHg 8%
    16:00 +51°C° 0 mm 3 mps 748 mmHg 8%
    17:00 +48°C° 0 mm 4 mps 748 mmHg 10%
    18:00 +45°C° 0 mm 5 mps 749 mmHg 13%
    19:00 +40°C° 0 mm 5 mps 749 mmHg 15%
    20:00 +37°C° 0 mm 5 mps 749 mmHg 17%
    21:00 +35°C° 0 mm 4 mps 750 mmHg 18%
    22:00 +33°C° 0 mm 3 mps 750 mmHg 20%
    23:00 +31°C° 0 mm 3 mps 750 mmHg 22%

    29 July, Monday

    Time Temperature Precipitation Wind Pressure Humidity
    00:00 +29°C° 0 mm 2 mps 750 mmHg 23%
    01:00 +28°C° 0 mm 2 mps 750 mmHg 25%
    02:00 +27°C° 0 mm 2 mps 750 mmHg 26%
    03:00 +26°C° 0 mm 1 mps 750 mmHg 27%
    04:00 +26°C° 0 mm 1 mps 750 mmHg 28%
    05:00 +28°C° 0 mm 1 mps 750 mmHg 25%
    06:00 +30°C° 0 mm 1 mps 750 mmHg 22%
    07:00 +30°C° 0 mm 0 mps 750 mmHg 19%
    08:00 +35°C° 0 mm 1 mps 750 mmHg 16%
    09:00 +39°C° 0 mm 1 mps 750 mmHg 13%
    10:00 +42°C° 0 mm 1 mps 749 mmHg 11%
    11:00 +43°C° 0 mm 2 mps 749 mmHg 9%
    12:00 +46°C° 0 mm 3 mps 749 mmHg 8%
    13:00 +48°C° 0 mm 3 mps 748 mmHg 7%
    14:00 +48°C° 0 mm 3 mps 748 mmHg 7%
    15:00 +50°C° 0 mm 4 mps 747 mmHg 8%
    16:00 +50°C° 0 mm 4 mps 747 mmHg 8%
    17:00 +48°C° 0 mm 5 mps 747 mmHg 9%
    18:00 +45°C° 0 mm 5 mps 747 mmHg 11%
    19:00 +41°C° 0 mm 6 mps 748 mmHg 13%
    20:00 +37°C° 0 mm 4 mps 748 mmHg 15%
    21:00 +34°C° 0 mm 3 mps 748 mmHg 17%
    22:00 +31°C° 0 mm 2 mps 748 mmHg 19%
    23:00 +30°C° 0 mm 2 mps 748 mmHg 21%
    Show more